Regional Weather Roundup
Issued by NWS State College, PA

Home | Current Version | Previous Version | Text Only | Print | Product List | Glossary On
Versions: 1 2 3 4 5 6 7 8 9 10 11 12 13 14 15 16 17 18 19 20 21 22 23 24 25 26 27 28 29 30 31 32 33 34 35 36 37 38 39 40 41 42 43 44 45 46 47 48 49 50
000
ASUS41 KCTP 080710
RWRCTP

REGIONAL WEATHER ROUNDUP
NATIONAL WEATHER SERVICE STATE COLLEGE PA
200 AM EST THU DEC 08 2016

Note: "fair" indicates few or no clouds below 12,000 feet with no
significant weather and/or obstructions to visibility.

* = STATION THAT DOES NOT REPORT PRECIPITATION /E.G. RAIN...SNOW...ETC/
    THUNDER OR FOG.

PAZ002>004-007>009-013>016-020>023-029>032-080800-
WESTERN PENNSYLVANIA

CITY           SKY/WX    TMP DP  RH WIND       PRES   REMARKS
ERIE           CLOUDY    35  24  64 SW12      29.99S
MEADVILLE      CLOUDY    31  22  69 SW8       29.99S
FRANKLIN*        N/A     30  19  64 W8        30.01S
NEW CASTLE     CLOUDY    33  23  66 W8        30.04F
BEAVER COUNTY  NOT AVBL
BUTLER*        CLOUDY    32  21  64 W9        30.06R
PITTSBURGH INT CLOUDY    34  23  64 W5        30.05R
PITTSBURGH     CLOUDY    33  20  58 W8        30.04S
INDIANA*       CLOUDY    32  25  74 W6        30.05S
LATROBE        CLOUDY    32  25  74 SW7       30.06S
WASHINGTON CO* CLOUDY    34  19  55 W7G16     30.06S
$$

PAZ004>006-010>012-017>019-024>028-033>037-041-042-045-046-049>053-080800-
CENTRAL PENNSYLVANIA

CITY           SKY/WX    TMP DP  RH WIND       PRES   REMARKS
BRADFORD       CLOUDY    29  22  75 SW6       29.94F
DUBOIS         CLOUDY    29  20  69 W7        29.97F
CLEARFIELD     PTCLDY    29  22  75 SW6       30.00S
JOHNSTOWN      CLOUDY    31  18  58 W9        29.97S
ALTOONA        CLOUDY    36  18  48 W10       30.01R
STATE COLLEGE  MOCLDY    34  23  63 SW5       30.00S
WILLIAMSPORT   MOCLDY    37  26  64 W6        30.00F
SELINSGROVE    CLOUDY    34  30  85 CALM      30.03S
FT INDIANTOWN  PTCLDY    33  28  85 S1        30.02R
CAPITAL CITY   CLOUDY    36  21  54 W5        30.03S
HARRISBURG     CLOUDY    35  24  64 CALM      30.03S
YORK           CLOUDY    28  26  92 CALM      30.03F
$$

PAZ038>040-043-044-047-048-054-055-060>062-067>071-080800-
EASTERN PENNSYLVANIA

CITY           SKY/WX    TMP DP  RH WIND       PRES   REMARKS
SCRANTON       CLOUDY    38  26  62 SW9       29.98R
MOUNT POCONO   CLOUDY    32  23  69 W10       29.93F
ALLENTOWN      PTCLDY    33  28  81 SW6       30.01R
QUAKERTOWN*    CLOUDY    28  28 100 MISG      30.02R
READING        PTCLDY    33  28  81 CALM      30.03R
LANCASTER      CLOUDY    32  31  96 W3        30.04R
COATESVILLE    CLOUDY    30  27  86 W6        30.04R
POTTSTOWN      PTCLDY    30  28  92 CALM      30.04R FOG
BLUE BELL      PTCLDY    32  32 100 CALM      30.02R
DOYLESTOWN     PTCLDY    35  30  82 S3        30.01R
WILLOW GROVE   NOT AVBL
NORTH PHILA    CLOUDY    32  30  92 CALM      30.04R
PHILADELPHIA   CLOUDY    37  30  75 W9        30.04S
$$



USA.gov is the U.S. government's official web portal to all federal, state and local government web resources and services.